Location: Wellington
(41.3000°S, 174.7830°E)
Time: 13:06:25
(UTC+13:00)

CZ-2C R/B - Pass Details

Date: 24 January 2019
Orbit: 785 x 870 km, 98.3° (Epoch: 16 February)

Event Time Altitude Azimuth Distance (km) Brightness Sun altitude
Exits shadow 21:48:37 11° 30° (NNE) 2,422 4.5 -10.3°
Maximum altitude 21:53:51 58° 108° (ESE) 971 2.9 -11.1°
Drops below altitude 10° 21:59:09 10° 185° (S) 2,437 5.8 -11.8°
Sets 22:01:31 0° 188° (S) 3,365 6.6 -12.2°
